KAP216 KAUG-KBOS

Flight info

Callsign KAP216
Flight time N/A
Altitude 8000
Route ENE PEASE STEVO LWRNC
Aircraft C404/L-SDFR/C

Departure

Time 2026-05-07 00:08
Airport Augusta State Airport (KAUG)

Arrival

Time N/A
Airport Boston Logan International Airport (KBOS)
Time Latitude Longitude Altitude Speed Heading
2026-05-06 23:41 44.31756 -69.79396 362 ft 0 kts 165°
2026-05-07 00:00 44.31753 -69.79396 364 ft 2 kts 198°
2026-05-07 00:00 44.31777 -69.79437 361 ft 11 kts 310°
2026-05-07 00:01 44.31779 -69.79510 363 ft 7 kts 244°
2026-05-07 00:01 44.31779 -69.79556 361 ft 6 kts 314°
2026-05-07 00:01 44.31825 -69.79597 362 ft 13 kts 336°
2026-05-07 00:01 44.31920 -69.79661 361 ft 17 kts 333°
2026-05-07 00:02 44.32024 -69.79732 359 ft 16 kts 323°
2026-05-07 00:02 44.32118 -69.79804 363 ft 18 kts 332°
2026-05-07 00:02 44.32256 -69.79904 359 ft 25 kts 333°
2026-05-07 00:02 44.32416 -69.80014 354 ft 28 kts 332°
2026-05-07 00:03 44.32518 -69.80087 345 ft 14 kts 332°
2026-05-07 00:03 44.32550 -69.80110 350 ft 0 kts 331°
2026-05-07 00:06 44.32559 -69.80119 346 ft 6 kts 316°
2026-05-07 00:06 44.32557 -69.80167 348 ft 5 kts 242°
2026-05-07 00:06 44.32532 -69.80207 345 ft 3 kts 163°
2026-05-07 00:07 44.32530 -69.80206 351 ft 0 kts 155°
2026-05-07 00:07 44.32369 -69.80095 350 ft 57 kts 153°
2026-05-07 00:07 44.31897 -69.79736 470 ft 89 kts 154°
2026-05-07 00:08 44.31275 -69.79270 738 ft 114 kts 156°
2026-05-07 00:08 44.30589 -69.78809 1295 ft 99 kts 174°
2026-05-07 00:08 44.30002 -69.78761 1755 ft 80 kts 197°
2026-05-07 00:08 44.29484 -69.79051 2038 ft 82 kts 214°
2026-05-07 00:09 44.29007 -69.79517 2326 ft 84 kts 221°
2026-05-07 00:09 44.28560 -69.80041 2693 ft 85 kts 221°
2026-05-07 00:09 44.28089 -69.80557 3075 ft 88 kts 224°
2026-05-07 00:09 44.27611 -69.81106 3440 ft 90 kts 224°
2026-05-07 00:10 44.27084 -69.81697 3598 ft 115 kts 222°
2026-05-07 00:10 44.26408 -69.82402 3952 ft 115 kts 220°
2026-05-07 00:10 44.25827 -69.82893 4677 ft 88 kts 214°
2026-05-07 00:10 44.25240 -69.83216 5013 ft 94 kts 205°
2026-05-07 00:11 44.24617 -69.83479 5396 ft 91 kts 218°
2026-05-07 00:11 44.24169 -69.84078 5755 ft 90 kts 227°
2026-05-07 00:11 44.23708 -69.84675 6137 ft 90 kts 228°
2026-05-07 00:11 44.23249 -69.85277 6479 ft 91 kts 227°
2026-05-07 00:12 44.22797 -69.85883 6846 ft 89 kts 227°
2026-05-07 00:12 44.22353 -69.86477 7193 ft 88 kts 227°
2026-05-07 00:12 44.21909 -69.87076 7522 ft 89 kts 228°
2026-05-07 00:12 44.21465 -69.87683 7833 ft 90 kts 228°
2026-05-07 00:13 44.20997 -69.88335 8064 ft 100 kts 228°
2026-05-07 00:13 44.20650 -69.89302 8044 ft 127 kts 250°
2026-05-07 00:13 44.20181 -69.90454 8031 ft 147 kts 233°
2026-05-07 00:13 44.19382 -69.91444 8021 ft 159 kts 220°
2026-05-07 00:14 44.18461 -69.92336 8009 ft 164 kts 218°
2026-05-07 00:14 44.17504 -69.93223 8002 ft 167 kts 218°
2026-05-07 00:14 44.16531 -69.94117 8002 ft 168 kts 218°
2026-05-07 00:14 44.15528 -69.95044 8006 ft 179 kts 218°
2026-05-07 00:15 44.14460 -69.96033 7985 ft 188 kts 218°
2026-05-07 00:15 44.13352 -69.97055 7986 ft 193 kts 217°
2026-05-07 00:15 44.12223 -69.98093 7983 ft 196 kts 217°
2026-05-07 00:15 44.11085 -69.99141 7982 ft 197 kts 217°
2026-05-07 00:16 44.09941 -70.00194 7978 ft 198 kts 217°
2026-05-07 00:16 44.08791 -70.01252 7980 ft 198 kts 217°
2026-05-07 00:16 44.07638 -70.02313 7977 ft 199 kts 217°
2026-05-07 00:16 44.06485 -70.03372 7978 ft 199 kts 217°
2026-05-07 00:17 44.05329 -70.04434 7976 ft 199 kts 217°
2026-05-07 00:17 44.04173 -70.05497 7977 ft 199 kts 217°
2026-05-07 00:17 44.03019 -70.06557 7976 ft 199 kts 217°
2026-05-07 00:17 44.01861 -70.07618 7975 ft 199 kts 217°
2026-05-07 00:18 44.00703 -70.08680 7964 ft 199 kts 217°
2026-05-07 00:18 43.99563 -70.09725 7965 ft 199 kts 217°
2026-05-07 00:18 43.98408 -70.10783 7964 ft 199 kts 217°
2026-05-07 00:18 43.97257 -70.11838 7963 ft 198 kts 217°
2026-05-07 00:19 43.96106 -70.12892 7965 ft 198 kts 217°
2026-05-07 00:19 43.94955 -70.13945 7963 ft 198 kts 217°
2026-05-07 00:19 43.93805 -70.14996 7963 ft 198 kts 217°
2026-05-07 00:19 43.92656 -70.16047 7965 ft 198 kts 217°
2026-05-07 00:20 43.91507 -70.17096 7963 ft 198 kts 217°
2026-05-07 00:20 43.90360 -70.18143 7964 ft 197 kts 217°
2026-05-07 00:20 43.89211 -70.19193 7964 ft 198 kts 217°
2026-05-07 00:20 43.88062 -70.20242 7966 ft 198 kts 217°
2026-05-07 00:21 43.86911 -70.21290 7965 ft 198 kts 217°
2026-05-07 00:21 43.85759 -70.22340 7965 ft 198 kts 217°
2026-05-07 00:21 43.84609 -70.23389 7967 ft 198 kts 217°
2026-05-07 00:21 43.83459 -70.24435 7972 ft 197 kts 217°
2026-05-07 00:22 43.82313 -70.25479 7971 ft 197 kts 217°
2026-05-07 00:22 43.81169 -70.26520 7971 ft 197 kts 217°
2026-05-07 00:22 43.80026 -70.27560 7970 ft 197 kts 218°
2026-05-07 00:22 43.78881 -70.28599 7970 ft 197 kts 218°
2026-05-07 00:23 43.77737 -70.29639 7971 ft 197 kts 218°
2026-05-07 00:23 43.76591 -70.30680 7972 ft 197 kts 217°
2026-05-07 00:23 43.75444 -70.31721 7972 ft 197 kts 218°
2026-05-07 00:23 43.74301 -70.32758 7972 ft 197 kts 218°
2026-05-07 00:24 43.73154 -70.33797 7972 ft 197 kts 217°
2026-05-07 00:24 43.72006 -70.34839 7973 ft 198 kts 218°
2026-05-07 00:24 43.70857 -70.35881 7971 ft 197 kts 218°
2026-05-07 00:24 43.69710 -70.36919 7973 ft 197 kts 218°
2026-05-07 00:25 43.68563 -70.37957 7973 ft 197 kts 218°
2026-05-07 00:25 43.67416 -70.38995 7974 ft 197 kts 218°
2026-05-07 00:25 43.66270 -70.40029 7973 ft 196 kts 218°
2026-05-07 00:25 43.65127 -70.41063 7973 ft 197 kts 218°
2026-05-07 00:26 43.63984 -70.42097 7971 ft 197 kts 218°